Location: Foulognes
(49.1413°N, 0.8183°W)
Time: 07:44:22
(UTC+00:00)

Cosmos 1844 Rocket - Pass Details

Date: 21 October 2019
Orbit: 826 x 843 km, 71.0° (Epoch: 21 November)

Event Time Altitude Azimuth Distance (km) Brightness Sun altitude
Rises 18:06:19 0° 232° (SW) 3,388 6.8 -11.1°
Reaches altitude 10° 18:08:55 10° 240° (WSW) 2,455 6.2 -11.6°
Maximum altitude 18:14:11 39° 309° (NW) 1,236 4.0 -12.4°
Drops below altitude 10° 18:19:27 10° 18° (NNE) 2,458 4.9 -13.3°
Sets 18:22:04 0° 26° (NNE) 3,393 5.6 -13.7°
